Theta_e
329 329 330 331 327 324 328 329 325 327 328 327 327 328 329 335 337 334 336 337 338 335 335 337 335 333 325 323 322 332 331 330 329 328 324 322 320 316 314 314 314 313 312 324 326 324 323 324 321
329 330 331 331 326 329 328 326 327 327 328 328 328 329 331 335 336 335 335 337 338 336 335 336 337 330 322 322 323 324 331 331 329 325 323 319 318 313 311 311 311 310 311 313 317 318 323 321 321
330 330 330 324 324 329 329 326 325 327 328 327 329 332 332 336 336 334 336 337 337 335 335 335 334 325 320 318 321 324 325 324 322 319 321 315 315 313 311 310 310 313 311 311 313 322 328 324 322
331 331 327 326 329 327 326 324 325 327 327 328 328 331 331 333 336 336 337 336 336 334 335 333 330 326 319 317 314 320 330 324 318 323 324 320 318 315 312 310 310 310 309 309 311 318 326 325 320
331 329 325 327 328 326 324 325 327 327 327 330 329 333 333 332 334 334 334 335 335 332 334 331 329 327 322 318 314 311 315 318 315 327 321 321 319 316 314 312 311 310 309 309 309 313 317 320 317
330 326 326 328 329 327 326 327 327 327 329 329 329 333 333 331 333 332 334 335 333 331 328 329 329 328 326 322 318 314 310 313 313 317 315 317 320 319 318 316 313 310 309 309 309 309 311 312 311
325 324 327 326 328 329 327 326 326 327 328 329 329 331 334 335 332 334 335 336 336 335 333 329 329 328 328 327 323 320 315 312 312 313 315 314 317 319 318 318 316 313 311 310 309 309 309 310 310
325 322 326 327 329 330 327 328 328 329 329 330 330 330 332 333 331 335 337 337 337 336 331 329 329 329 328 328 327 324 321 317 314 313 314 316 317 320 315 314 318 317 314 312 311 310 310 310 310
324 324 326 326 327 328 327 326 327 329 329 330 332 329 326 327 330 334 335 335 335 332 328 323 323 324 326 326 327 328 326 324 321 318 316 315 315 315 319 318 318 320 318 315 312 312 312 312 312
320 323 327 322 323 324 325 327 328 329 330 331 332 328 327 325 326 330 329 328 326 326 325 325 324 323 322 321 321 321 326 327 327 326 324 321 317 316 315 317 317 316 316 314 313 313 313 313 313
321 322 322 322 322 325 324 325 325 327 327 329 330 326 327 326 327 329 328 327 325 326 326 325 325 326 325 326 326 326 325 324 323 323 325 327 325 321 318 317 317 317 319 319 319 317 315 315 314
323 321 322 323 323 324 323 323 323 326 328 328 326 325 325 326 325 324 324 324 325 325 326 326 325 325 325 325 324 325 325 326 326 327 327 324 326 327 324 322 320 319 321 322 322 322 320 319 317
322 322 323 323 323 323 323 322 322 323 326 328 327 325 324 324 323 323 324 325 327 327 326 326 326 325 324 324 324 324 323 324 324 325 326 327 328 326 326 326 325 324 323 323 322 322 322 322 322
321 322 322 323 323 323 322 322 323 324 325 329 329 325 325 324 324 325 325 325 326 325 325 324 324 324 324 323 322 322 322 322 322 321 322 325 326 328 329 328 326 326 326 326 325 324 324 324 323
322 322 320 321 322 322 323 323 321 323 324 329 329 328 327 326 325 324 324 325 325 324 323 323 324 324 323 323 323 322 322 323 322 321 322 323 324 326 328 330 331 329 327 327 327 326 326 325 325
322 319 323 320 321 322 321 321 318 321 323 324 325 327 327 326 325 323 324 325 324 324 323 324 323 323 323 323 323 322 322 322 322 321 321 323 326 327 328 329 332 331 330 329 328 327 327 326 327
319 321 322 321 319 320 320 321 319 321 321 322 322 323 324 324 323 323 324 324 325 324 323 323 323 323 323 322 321 322 322 322 321 321 321 320 324 328 329 330 329 329 329 328 329 329 327 326 325
322 322 320 320 318 318 320 319 318 320 320 320 320 321 321 321 323 324 324 323 324 323 323 323 323 323 321 320 320 321 321 321 320 319 317 318 321 328 329 328 329 328 328 328 328 327 327 327 326
319 321 320 318 317 318 317 316 316 318 319 320 320 320 320 321 321 322 323 323 323 323 323 323 321 320 319 320 320 321 320 318 316 314 314 316 319 326 327 324 328 328 328 327 327 328 329 327 326
319 319 319 318 316 317 316 316 315 315 316 318 320 321 321 322 321 321 322 322 322 321 321 320 320 319 319 319 319 318 316 314 315 315 315 315 319 325 326 327 327 328 329 327 326 328 328 328 328
320 320 318 319 317 315 315 315 314 314 315 317 318 320 321 322 322 321 320 321 321 320 320 319 319 319 319 318 317 315 313 314 315 316 315 317 320 324 326 325 326 326 327 325 325 325 329 327 328
321 318 319 320 319 318 313 313 309 312 313 313 316 318 319 319 320 320 320 320 320 319 318 318 319 319 318 317 314 312 314 314 315 316 316 318 324 324 327 325 328 327 324 323 323 324 325 327 327
319 316 318 317 317 316 315 315 311 312 311 311 312 314 315 316 315 316 316 316 318 318 317 318 318 318 316 313 312 313 314 316 317 317 319 324 326 324 324 323 324 322 323 323 324 323 324 325 326
314 316 317 316 316 316 314 314 311 311 312 311 312 314 315 315 314 314 316 316 316 316 317 317 317 315 313 312 313 314 315 317 320 321 324 326 325 322 322 323 323 326 324 324 325 325 324 323 323
316 315 314 317 317 315 311 315 313 312 311 310 311 314 314 314 314 313 316 316 316 316 317 316 314 313 312 312 313 313 314 317 321 323 324 323 323 322 323 324 323 324 324 323 322 322 321 322 322
316 316 316 319 319 313 310 315 313 310 312 313 312 313 314 314 313 314 315 316 316 316 315 314 312 311 312 312 312 312 313 315 319 321 320 320 321 323 323 323 322 320 320 319 319 320 320 320 320
316 319 313 312 301 309 310 308 308 308 307 308 310 312 313 313 313 314 314 314 314 314 313 312 311 311 311 312 312 311 311 313 314 317 317 317 317 318 318 318 318 317 316 312 310 309 309 309 309
314 314 318 315 317 307 309 309 311 309 310 308 308 311 312 312 312 313 313 313 313 312 311 311 311 311 311 311 311 310 310 310 311 314 315 316 316 316 316 315 311 308 306 305 303 302 302 301 301
315 315 316 316 313 312 309 308 304 307 306 308 308 311 312 313 314 313 313 312 312 312 312 310 310 310 310 310 309 309 308 308 308 309 310 310 309 308 306 304 301 300 299 299 298 297 296 296 296
314 314 315 317 310 310 313 315 307 306 305 308 309 311 312 312 312 313 313 313 312 312 311 310 309 309 309 309 308 308 307 307 306 306 305 304 303 300 299 298 298 297 296 296 296 295 295 295 295
Wind_Speed
9 5 2 5 4 5 2 0 1 2 2 5 10 9 9 6 1 2 16 10 7 10 13 12 8 4 4 6 10 12 9 6 3 3 2 1 1 4 6 7 5 3 6 12 9 4 3 4 2
8 2 5 3 5 4 3 2 4 2 12 16 12 7 7 2 2 10 14 11 7 9 11 11 9 5 4 5 9 13 12 9 6 4 2 1 2 2 4 5 4 4 6 8 8 5 3 2 1
5 1 3 4 4 4 5 3 4 7 18 3 5 9 3 2 5 11 10 12 11 10 11 10 7 5 4 4 7 9 10 10 7 3 3 2 3 3 2 2 4 5 4 7 7 5 3 2 1
2 2 6 4 3 2 6 6 5 9 5 4 12 6 4 2 6 6 11 12 10 12 12 10 7 4 4 4 5 9 10 7 6 5 4 1 2 2 4 2 3 3 2 3 6 7 6 3 0
2 3 4 5 2 2 1 7 12 4 4 7 2 3 2 2 6 7 13 12 11 13 13 11 8 5 4 3 3 5 7 7 6 8 6 3 4 3 3 4 3 3 3 3 4 7 8 7 4
3 3 5 4 2 2 1 11 8 5 7 10 9 5 2 4 6 12 11 10 8 8 11 11 9 6 5 4 3 3 4 6 6 4 4 4 5 5 3 3 2 3 4 4 4 5 8 8 7
5 3 4 6 6 3 4 11 9 10 7 2 11 4 5 7 8 11 10 9 7 4 6 9 9 8 7 6 5 4 3 5 6 5 5 5 6 6 5 4 3 2 4 5 5 5 6 7 7
4 4 4 2 5 4 7 6 11 13 4 11 5 5 5 13 11 13 12 10 9 7 5 8 10 10 9 8 8 7 6 6 7 7 7 8 8 7 6 5 5 5 5 5 6 7 8 8 8
2 4 2 5 6 5 9 5 6 7 11 6 5 8 8 16 15 16 14 13 12 10 7 5 7 7 7 8 9 9 8 8 8 9 8 9 9 9 10 9 9 9 9 9 8 8 8 9 9
5 3 4 2 4 5 6 7 12 7 9 4 9 10 14 15 16 16 15 12 10 9 7 6 6 6 6 6 6 6 9 9 9 10 11 11 11 12 13 12 12 11 11 10 9 10 11 11 10
2 3 1 1 3 8 7 6 4 15 2 12 20 19 19 18 16 15 13 11 7 5 8 7 8 7 8 7 7 7 7 8 9 10 12 13 14 14 15 15 14 13 12 11 11 12 12 12 12
3 1 2 1 3 4 5 5 4 7 6 13 17 19 21 21 19 16 13 12 11 9 6 7 9 10 10 9 9 9 10 10 11 11 12 14 15 17 17 17 16 17 15 15 14 14 14 14 14
2 1 2 2 3 4 5 4 1 8 8 11 18 21 21 21 19 16 12 11 11 13 9 9 11 11 9 10 10 11 12 13 14 15 16 16 16 16 17 18 18 18 18 18 16 16 16 16 16
2 1 2 2 2 1 2 1 0 8 7 11 20 21 20 20 19 18 18 17 16 14 13 12 14 13 11 12 13 13 13 13 14 15 16 19 20 20 19 18 19 20 19 19 19 19 19 19 19
1 2 3 2 5 3 3 3 8 7 11 14 19 20 21 21 20 22 19 18 14 14 13 15 14 14 15 16 16 17 17 18 19 19 19 18 20 21 22 21 21 20 19 20 21 21 21 22 21
3 5 1 3 7 4 8 7 15 15 13 17 19 21 23 24 25 24 21 21 18 18 18 16 18 19 19 21 22 23 24 26 26 26 25 23 22 21 22 24 24 22 21 21 23 23 24 24 22
5 3 4 6 10 3 5 6 13 13 13 21 25 26 28 30 30 29 24 25 26 24 22 20 21 23 23 24 26 27 28 29 30 30 30 28 25 23 22 26 27 25 24 24 24 23 23 25 24
6 4 5 6 2 4 3 8 12 14 10 22 24 26 26 28 31 26 25 25 31 29 25 24 24 25 24 25 27 27 29 31 33 34 33 29 27 25 23 25 25 25 26 27 27 27 26 25 24
4 3 6 3 2 1 6 7 14 22 14 20 27 27 22 21 20 22 29 30 32 31 28 26 25 25 25 25 27 29 32 34 37 35 31 26 24 22 24 23 25 26 26 25 28 27 27 28 25
2 3 3 3 5 1 6 9 10 14 11 23 31 33 31 28 28 23 25 29 30 29 29 27 25 23 25 27 29 32 34 33 30 27 26 25 24 23 23 24 24 26 25 25 28 27 29 28 28
4 8 4 4 4 3 5 13 6 10 16 26 29 30 34 34 35 35 32 33 34 32 30 26 23 24 26 27 29 31 29 28 27 25 23 22 23 23 21 22 24 25 24 23 26 28 26 28 26
9 5 5 2 2 5 2 11 9 5 10 7 24 35 39 39 42 43 42 41 37 31 28 25 24 27 27 29 27 26 26 24 24 23 22 21 20 18 19 22 23 20 20 22 22 22 25 28 22
5 6 7 5 4 2 3 5 5 3 6 10 20 33 33 33 32 30 32 35 37 30 26 24 25 26 25 23 23 23 22 20 20 18 19 20 19 18 19 22 23 23 22 23 22 20 20 20 21
6 4 4 3 2 6 8 7 5 6 9 6 8 23 24 24 26 28 23 23 31 29 25 25 25 22 22 21 19 18 17 16 15 17 18 18 19 18 20 23 17 17 21 17 16 15 16 17 19
3 7 0 1 3 7 2 8 13 7 9 7 12 24 20 17 19 20 23 24 28 27 25 23 20 20 19 18 18 17 16 15 15 16 16 16 17 19 20 16 16 16 18 18 20 19 19 18 17
10 11 4 6 5 4 1 8 6 6 17 21 21 23 26 26 18 17 20 22 24 24 22 20 19 18 17 17 17 16 15 14 15 17 16 17 19 19 19 20 19 21 21 21 19 17 16 16 16
5 13 7 4 3 2 4 7 8 8 10 17 14 15 21 21 20 16 19 21 21 21 20 18 18 18 17 17 16 16 15 15 16 18 20 22 22 22 22 22 21 19 17 15 13 12 12 12 13
6 6 5 2 2 4 5 5 9 7 7 9 8 13 16 16 18 18 19 20 21 20 19 19 19 18 17 17 16 16 16 16 17 18 19 19 19 19 19 18 16 14 13 13 13 12 12 12 12
4 6 4 2 5 4 3 6 7 9 7 8 10 10 14 17 17 19 21 21 20 21 22 21 21 19 19 18 18 18 18 18 18 18 18 17 16 16 16 15 15 15 15 15 15 15 14 14 13
13 11 16 8 5 4 6 18 3 5 6 6 6 12 12 12 14 18 23 23 25 25 25 24 23 22 21 21 20 20 20 20 20 20 19 18 17 17 17 16 17 17 16 16 16 15 15 15 14
Wind_Direction
342 337 134 151 62 66 29 123 278 162 58 50 89 104 116 67 100 187 146 143 142 164 166 163 165 158 137 140 148 146 152 167 178 126 126 130 163 176 186 207 217 201 161 187 190 180 193 223 275
340 342 128 120 86 79 282 274 158 144 130 106 77 73 50 76 91 141 149 153 150 170 166 161 164 158 140 151 156 162 159 175 194 230 237 267 210 142 177 180 189 180 164 175 187 191 190 205 209
324 101 129 91 107 149 170 207 198 131 146 109 101 70 70 86 127 145 149 148 156 167 167 171 170 162 139 150 162 165 180 199 206 201 161 112 139 134 151 164 148 171 181 183 174 162 187 243 288
322 127 72 82 110 219 160 183 191 137 151 116 115 71 81 178 166 168 167 163 166 172 174 174 171 151 140 145 163 177 191 198 211 183 167 164 146 139 147 160 179 195 196 191 195 188 190 227 148
67 71 60 82 79 113 114 161 151 116 100 108 104 119 70 139 203 176 167 169 174 174 179 181 177 167 154 146 159 183 199 202 199 182 208 213 193 162 152 159 176 221 235 228 208 215 226 247 288
59 69 72 120 122 86 106 153 134 108 116 118 104 99 91 132 170 158 169 168 161 173 181 185 186 186 182 178 170 176 195 200 208 204 212 226 216 206 195 196 197 207 215 231 234 231 234 252 271
96 72 148 136 154 136 167 158 141 133 139 113 133 102 146 164 172 168 170 182 198 222 220 208 204 206 205 206 207 206 201 206 213 226 234 240 237 221 230 225 225 237 242 246 244 254 251 257 269
64 87 106 170 167 173 161 124 148 133 113 132 126 167 181 168 170 174 181 199 223 239 230 226 223 224 225 227 226 227 228 223 223 230 237 240 244 253 262 259 254 260 269 269 266 268 271 276 281
21 63 140 164 154 175 158 131 149 145 140 142 161 152 146 158 170 179 188 201 215 223 218 211 220 229 231 238 237 238 240 242 240 241 245 247 251 254 260 271 271 269 273 275 278 281 283 285 286
64 87 194 182 178 171 175 141 138 140 140 108 140 150 159 170 176 186 191 197 207 214 219 220 214 219 220 224 232 242 245 252 258 262 260 261 260 257 258 260 265 267 265 267 276 283 285 286 287
71 138 258 47 131 139 141 136 136 144 208 183 171 164 169 177 188 198 204 208 213 234 235 244 244 244 247 246 247 248 252 256 266 271 270 267 264 261 259 260 262 264 265 269 276 282 286 289 285
109 94 17 82 71 116 116 134 114 184 203 194 184 180 179 183 190 196 206 213 215 228 237 247 251 248 251 253 261 269 271 276 275 277 276 271 269 266 264 265 264 262 264 269 274 283 285 289 288
92 244 35 37 41 87 113 85 172 233 193 187 186 189 191 193 196 199 209 217 224 236 240 251 256 255 257 268 276 283 288 288 292 284 281 280 278 276 271 267 265 265 265 269 273 280 282 282 285
338 258 57 247 266 315 129 180 203 221 203 184 189 196 202 205 209 212 214 220 228 243 244 256 254 256 261 272 281 286 285 289 285 283 284 282 281 278 276 275 273 271 270 272 274 277 278 277 277
307 318 20 173 214 244 154 308 245 196 196 194 197 207 213 221 224 229 239 240 248 250 259 255 247 249 261 268 273 277 282 281 281 284 283 282 280 279 276 275 275 277 278 277 275 274 276 276 278
108 42 99 267 158 239 157 253 252 232 207 212 220 222 226 232 236 239 246 247 253 247 251 243 245 252 260 268 272 272 278 279 280 282 283 280 279 282 278 272 268 273 275 279 278 275 275 277 280
10 167 198 294 212 129 176 250 265 247 230 236 237 236 240 242 242 241 243 243 245 244 245 239 251 257 258 269 272 271 274 272 275 275 276 276 273 276 279 269 268 270 271 272 275 280 278 279 283
176 194 216 220 279 181 203 251 270 258 249 246 253 252 251 252 249 248 243 243 242 243 242 241 246 256 265 273 274 271 272 275 277 279 278 274 265 263 271 269 269 269 269 266 267 272 276 280 281
178 160 183 237 225 227 239 245 264 271 254 254 253 251 251 252 255 261 241 246 239 239 243 243 250 263 268 264 262 267 272 277 280 280 276 271 263 257 259 260 269 269 270 272 270 270 270 272 277
190 198 225 294 287 111 290 259 259 272 252 252 251 252 253 258 257 251 239 231 233 235 242 246 253 263 270 267 271 274 279 281 280 275 269 260 250 249 248 248 257 261 263 266 271 269 269 271 269
211 213 163 210 350 285 321 276 234 255 247 252 253 256 255 253 252 252 245 241 241 242 242 244 252 266 270 270 274 276 279 279 279 273 265 256 248 249 250 256 259 268 265 271 270 266 266 269 270
229 179 158 175 79 251 119 284 247 242 258 222 246 247 247 250 253 254 255 249 245 238 235 241 254 264 263 268 270 277 278 276 275 271 266 261 252 250 250 259 256 262 278 277 272 273 269 266 267
217 161 180 165 185 306 196 286 267 242 259 263 250 251 254 257 263 261 271 253 242 235 234 241 254 262 265 268 275 276 276 276 272 264 256 250 249 255 260 262 261 264 260 264 262 267 269 262 260
152 105 70 71 140 260 196 194 205 205 225 256 259 262 264 269 269 268 261 245 230 229 234 244 250 258 265 273 273 276 279 276 264 252 241 241 251 261 265 264 273 257 271 277 253 263 271 267 266
129 116 54 246 215 238 299 199 255 296 277 238 256 268 279 278 280 262 245 231 226 229 234 243 252 259 267 267 271 275 276 270 262 252 250 251 253 260 259 255 264 251 256 260 268 264 264 264 264
191 190 179 205 208 251 91 229 257 242 266 270 275 281 280 278 287 254 237 228 224 229 237 243 253 263 263 266 269 271 270 266 255 249 255 258 258 254 256 260 262 265 267 265 262 258 254 247 242
186 208 189 100 15 37 237 292 288 269 278 281 294 287 282 276 270 258 234 227 227 231 240 250 263 265 267 267 265 266 268 264 257 251 252 252 253 257 259 261 261 259 256 251 244 239 236 233 231
179 151 191 158 233 278 262 265 238 302 269 262 279 288 306 294 267 252 236 231 234 239 249 261 259 260 257 256 258 262 262 261 259 255 252 251 251 251 251 248 245 241 240 238 236 235 232 228 225
156 208 226 194 176 206 274 255 219 232 257 248 283 297 311 307 287 263 250 246 247 252 260 262 256 251 249 252 256 258 259 259 256 252 248 245 241 239 235 232 231 232 233 234 234 232 228 222 216
220 220 203 204 237 249 264 264 187 224 228 166 296 327 315 299 289 276 265 258 257 260 264 262 261 254 251 251 253 255 255 255 253 250 246 241 237 235 235 235 237 238 237 235 233 230 226 221 212